[[{"header":{"parameterUnit":"m.s-1","parameterCategory":2,"la1":30.2991,"la2":30.254,"lo1":-89.0895,"lo2":-89.0444,"dy":0.0017,"dx":0.0017,"nx":28,"ny":28,"refTime":"2024-04-12T03:00:00:Z","depth":"0","parameterNumber":2,"parameterNumberName":"U-component_of_CURRENTS"},"data":[0,0,0,0,0,0,0,0,0,0,0,0,0,0,0,0,0,0,0,0,0,0,0,0,0,0,0,0,0,0,0,0,0,0,0,0,0,0,0,0,0,0,0,0,0,0,0,0,0,0,0,0,0,0,0,0,0,0,-0.3634,-0.3635,0,-0.3666,-0.3666,-0.3666,-0.363,-0.3629,-0.3628,-0.3627,-0.3602,-0.3602,-0.3603,0,0,0,0,0,0,0,0,0,0,0,0,0,-0.3544,-0.3546,-0.3634,-0.3635,-0.3636,-0.3666,-0.3666,-0.3666,-0.363,-0.3629,-0.3628,-0.3626,-0.3602,-0.3602,-0.3603,0,0,0,0,0,0,0,0,0,0,0,0,0,-0.3576,-0.3546,-0.3634,-0.3625,-0.3624,-0.3666,-0.3666,-0.3666,-0.363,-0.3629,-0.3627,-0.3626,-0.3602,-0.3602,-0.3603,-0.3633,0,0,-0.3604,-0.3604,0,0,0,0,0,0,0,0,-0.3574,-0.3579,-0.3625,-0.3625,-0.3625,-0.3647,-0.3626,-0.3654,-0.363,-0.3623,-0.3627,-0.3625,-0.3616,-0.3615,-0.3618,-0.3632,-0.3631,-0.3604,-0.3604,-0.3604,-0.3604,0,0,0,0,0,0,0,-0.3572,-0.3577,-0.3642,-0.3626,-0.3626,-0.3621,-0.3623,-0.3631,-0.3622,-0.3624,-0.3622,-0.3634,-0.3615,-0.3618,-0.3617,-0.3631,-0.3604,-0.3604,-0.3604,-0.3604,-0.3652,-0.3653,0,0,0,0,0,0,-0.3579,-0.3576,-0.3641,-0.3643,-0.3601,-0.3624,-0.3626,-0.3637,-0.3623,-0.3622,-0.3635,-0.3632,-0.3618,-0.3617,-0.3616,-0.3633,-0.3604,-0.3604,-0.3605,-0.3651,-0.3652,-0.3653,0,0,0,0,0,0,-0.3577,-0.3585,-0.364,-0.3614,-0.3621,-0.3627,-0.364,-0.3639,-0.3636,-0.3634,-0.3629,-0.3633,-0.3617,-0.3616,-0.3626,-0.3633,-0.3605,-0.3605,-0.365,-0.3651,-0.3653,-0.3679,0,0,0,0,0,0,-0.3575,-0.3584,-0.3573,-0.3614,-0.3623,-0.3654,-0.3642,-0.3641,-0.3648,-0.3644,-0.3631,-0.3628,-0.3616,-0.3626,-0.3626,-0.3633,-0.3605,-0.3648,-0.365,-0.3652,-0.3677,-0.3682,-0.3685,0,0,0,0,0,-0.3571,-0.3558,-0.3573,-0.358,-0.3615,-0.3655,-0.3658,-0.3654,-0.365,-0.3646,-0.3648,-0.3628,-0.3638,-0.3627,-0.3628,-0.3634,-0.3647,-0.365,-0.3652,-0.3675,-0.3681,-0.3685,0,0,0,0,0,0,-0.3485,-0.3556,-0.3571,-0.3572,-0.3612,-0.365,-0.364,-0.3658,-0.3659,-0.365,-0.3646,-0.3643,-0.3653,-0.3647,-0.3635,-0.3655,-0.3638,-0.3641,-0.3656,-0.3661,-0.3665,-0.3658,-0.3605,0,0,0,0,0,-0.3474,-0.3487,-0.3558,-0.3548,-0.3577,-0.3615,-0.3624,-0.3639,-0.3658,-0.3656,-0.3655,-0.3656,-0.3667,-0.3666,-0.3669,-0.3684,-0.3635,-0.3689,-0.3693,-0.3697,-0.3693,-0.3615,-0.361,-0.3661,-0.3661,-0.3661,0,0,-0.3427,-0.3472,-0.347,-0.3532,-0.3559,-0.3606,-0.3614,-0.3637,-0.3665,-0.3655,-0.3668,-0.3671,-0.3676,-0.3689,-0.3693,-0.3682,-0.3659,-0.37,-0.3702,-0.3696,-0.3617,-0.3611,-0.3606,-0.3663,-0.3663,-0.3662,0,0,-0.3371,-0.3398,-0.3411,-0.3464,-0.3531,-0.3572,-0.3586,-0.3643,-0.3652,-0.3685,-0.3684,-0.3694,-0.3708,-0.3713,-0.3719,-0.3752,-0.3686,-0.3752,-0.3764,-0.3689,-0.3683,-0.3677,-0.3612,-0.36,-0.3751,-0.3752,-0.3752,0,-0.3309,-0.3353,-0.3413,-0.3463,-0.35,-0.3565,-0.3602,-0.3637,-0.3682,-0.3687,-0.3687,-0.3705,-0.372,-0.3731,-0.3755,-0.3759,-0.3701,-0.3742,-0.369,-0.3683,-0.3677,-0.3611,-0.3598,-0.3753,-0.3753,-0.3753,-0.3753,0,-0.3292,-0.3336,-0.3348,-0.3443,-0.349,-0.3525,-0.3616,-0.3641,-0.3669,-0.3699,-0.371,-0.3727,-0.3729,-0.3748,-0.3771,-0.3747,-0.3715,-0.3702,-0.3669,-0.3672,-0.3605,-0.359,-0.3755,-0.3755,-0.3754,-0.3754,0,0,-0.3141,-0.3303,-0.3308,-0.3364,-0.3489,-0.3525,-0.3585,-0.3649,-0.3662,-0.3699,-0.3696,-0.3748,-0.3742,-0.3751,-0.3765,-0.3728,-0.3661,-0.3704,-0.3699,-0.3626,-0.3482,-0.3354,-0.3326,-0.3619,-0.3616,-0.3614,-0.3453,0,-0.3108,-0.3192,-0.3287,-0.3361,-0.3421,-0.3518,-0.356,-0.3624,-0.3666,-0.3679,-0.3702,-0.3701,-0.3748,-0.3735,-0.3715,-0.3674,-0.3622,-0.3706,-0.3502,-0.3497,-0.337,-0.3305,-0.3169,-0.3004,-0.3439,-0.3436,-0.3434,0,-0.3074,-0.3142,-0.3211,-0.3345,-0.3374,-0.3421,-0.3495,-0.3544,-0.36,-0.362,-0.3634,-0.3648,-0.3643,-0.3658,-0.3568,-0.3609,-0.3553,-0.3513,-0.3504,-0.3362,-0.334,-0.3071,-0.296,-0.2933,-0.3411,-0.3413,-0.3415,0,-0.2959,-0.3094,-0.3141,-0.319,-0.334,-0.3366,-0.3426,-0.3503,-0.3535,-0.3563,-0.356,-0.3562,-0.3529,-0.3474,-0.345,-0.348,-0.3318,-0.3337,-0.3163,-0.3155,-0.2988,-0.2967,-0.2809,-0.3232,-0.3233,-0.3233,-0.3234,0,-0.2907,-0.2947,-0.3088,-0.3119,-0.316,-0.3281,-0.3313,-0.3372,-0.3429,-0.3428,-0.3503,-0.3471,-0.3472,-0.3413,-0.3392,-0.3224,-0.3258,-0.3135,-0.3086,-0.2996,-0.2978,-0.2907,-0.298,-0.3227,-0.3228,-0.323,-0.3231,0,-0.2794,-0.2887,-0.2952,-0.3081,-0.312,-0.314,-0.3264,-0.3272,-0.3335,-0.3329,-0.3324,-0.3363,-0.3269,-0.3271,-0.3161,-0.3102,-0.2924,-0.2923,-0.2827,-0.2768,-0.2554,-0.2636,-0.2458,-0.2392,-0.2666,-0.2662,-0.2658,0,-0.2753,-0.2773,-0.2896,-0.2931,-0.2992,-0.3056,-0.3088,-0.3198,-0.3211,-0.3243,-0.3206,-0.3154,-0.3101,-0.2927,-0.2803,-0.2677,-0.2748,-0.2463,-0.2494,-0.2485,-0.2541,-0.2625,-0.2591,-0.2296,-0.229,-0.2285,-0.228,0,-0.2664,-0.2694,-0.2744,-0.2811,-0.2858,-0.2913,-0.2968,-0.2976,-0.3054,-0.3036,-0.297,-0.2931,-0.2785,-0.2582,-0.2441,-0.2364,-0.2402,-0.2346,-0.2346,-0.223,-0.23,-0.2231,-0.2494,-0.2234,-0.2239,-0.2242,-0.2244,-0.2246,-0.2578,-0.2574,-0.2629,-0.2683,-0.2731,-0.2737,-0.2714,-0.2762,-0.2738,-0.2685,-0.2739,-0.2626,-0.2478,-0.2248,-0.2143,-0.1877,-0.2036,-0.1819,-0.1916,-0.1998,-0.1932,-0.2091,-0.1775,-0.1777,-0.1779,-0.178,-0.1782,0,-0.2466,-0.247,-0.2507,-0.2551,-0.2533,-0.2602,-0.2598,-0.2529,-0.2428,-0.244,-0.2386,-0.2238,-0.2037,-0.1898,-0.1602,-0.1488,-0.1492,-0.1479,-0.1586,-0.1568,-0.1674,-0.1653,-0.1283,-0.1283,-0.1283,-0.1283,-0.1283,-0.1283,-0.2404,-0.2369,-0.238,-0.233,-0.2351,-0.2244,-0.2191,-0.2099,-0.2066,-0.1921,-0.1843,-0.1884,-0.1733,-0.1709,-0.1461,-0.1372,-0.1391,-0.1338,-0.1414,-0.1532,-0.1574,-0.1613,-0.1604,-0.1229,-0.123,-0.1216,-0.1217,-0.1217]},{"header":{"parameterUnit":"m.s-1","parameterCategory":2,"la1":30.2991,"la2":30.254,"lo1":-89.0895,"lo2":-89.0444,"dy":0.0017,"dx":0.0017,"nx":28,"ny":28,"refTime":"2024-04-12T03:00:00:Z","depth":"0","parameterNumber":3,"parameterNumberName":"V-component_of_CURRENTS"},"data":[0,0,0,0,0,0,0,0,0,0,0,0,0,0,0,0,0,0,0,0,0,0,0,0,0,0,0,0,0,0,0,0,0,0,0,0,0,0,0,0,0,0,0,0,0,0,0,0,0,0,0,0,0,0,0,0,0,0,-0.0885,-0.0884,0,-0.0734,-0.0732,-0.073,-0.0638,-0.0638,-0.0638,-0.0638,-0.0398,-0.0392,-0.0386,0,0,0,0,0,0,0,0,0,0,0,0,0,-0.0998,-0.0997,-0.0885,-0.0883,-0.0882,-0.0734,-0.0732,-0.0729,-0.0638,-0.0638,-0.0638,-0.0638,-0.04,-0.0393,-0.0385,0,0,0,0,0,0,0,0,0,0,0,0,0,-0.0904,-0.0997,-0.0885,-0.0822,-0.0816,-0.0735,-0.0732,-0.0728,-0.0638,-0.0638,-0.0638,-0.0638,-0.0403,-0.0393,-0.0384,-0.0324,0,0,-0.0355,-0.035,0,0,0,0,0,0,0,0,-0.0909,-0.0899,-0.0833,-0.0827,-0.0819,-0.0709,-0.0684,-0.0591,-0.0638,-0.07,-0.0638,-0.0638,-0.0497,-0.048,-0.0445,-0.0313,-0.0303,-0.0354,-0.0348,-0.0344,-0.0341,0,0,0,0,0,0,0,-0.0916,-0.0905,-0.082,-0.0832,-0.0823,-0.077,-0.0756,-0.0665,-0.0594,-0.0694,-0.0688,-0.068,-0.0492,-0.0455,-0.0439,-0.0299,-0.0354,-0.0346,-0.034,-0.0336,-0.0115,-0.0114,0,0,0,0,0,0,-0.095,-0.0911,-0.0825,-0.0816,-0.0871,-0.0768,-0.0753,-0.074,-0.0597,-0.0578,-0.068,-0.0676,-0.0471,-0.045,-0.043,-0.0374,-0.0344,-0.0335,-0.0329,-0.0115,-0.0114,-0.0114,0,0,0,0,0,0,-0.0953,-0.0944,-0.0831,-0.0864,-0.0847,-0.0768,-0.0753,-0.0737,-0.0696,-0.0588,-0.0566,-0.0655,-0.047,-0.0443,-0.0357,-0.0363,-0.0331,-0.0322,-0.0115,-0.0115,-0.0114,-0.0246,0,0,0,0,0,0,-0.0957,-0.0945,-0.0951,-0.0867,-0.0847,-0.0783,-0.0753,-0.0734,-0.0693,-0.0686,-0.0559,-0.0538,-0.0468,-0.0372,-0.0348,-0.0349,-0.0314,-0.0115,-0.0115,-0.0114,-0.0242,-0.0251,-0.0258,0,0,0,0,0,-0.0961,-0.0954,-0.0952,-0.0942,-0.0855,-0.0783,-0.0766,-0.0707,-0.0693,-0.067,-0.0597,-0.0541,-0.0353,-0.0364,-0.0335,-0.0335,-0.0115,-0.0115,-0.0115,-0.0239,-0.0249,-0.0258,0,0,0,0,0,0,-0.099,-0.0942,-0.0938,-0.0914,-0.0862,-0.077,-0.0744,-0.0709,-0.0632,-0.0627,-0.053,-0.0502,-0.0432,-0.036,-0.0374,-0.027,-0.0228,-0.0222,-0.0332,-0.0341,-0.0348,-0.0371,-0.0306,0,0,0,0,0,-0.1009,-0.1002,-0.0939,-0.0924,-0.0898,-0.0826,-0.0793,-0.0754,-0.0678,-0.0644,-0.0566,-0.0481,-0.0407,-0.0358,-0.0277,-0.021,-0.0167,-0.0192,-0.02,-0.0208,-0.0206,-0.0175,-0.0181,-0.0113,-0.0113,-0.0113,0,0,-0.1019,-0.0993,-0.099,-0.0933,-0.0885,-0.0859,-0.0803,-0.0751,-0.0732,-0.0629,-0.0574,-0.0501,-0.0395,-0.0333,-0.0294,-0.0273,-0.0203,-0.0207,-0.0215,-0.0208,-0.0175,-0.0182,-0.0189,-0.0113,-0.0113,-0.0113,0,0,-0.1031,-0.1008,-0.1007,-0.0974,-0.0919,-0.0876,-0.0868,-0.0784,-0.0744,-0.0684,-0.0618,-0.0556,-0.0428,-0.037,-0.0321,-0.0317,-0.0249,-0.0287,-0.0339,-0.0311,-0.0317,-0.0322,-0.0283,-0.0283,-0.029,-0.029,-0.029,0,-0.1053,-0.1043,-0.0992,-0.0981,-0.0968,-0.0893,-0.0888,-0.0831,-0.0738,-0.071,-0.0682,-0.0537,-0.0451,-0.0387,-0.0388,-0.0337,-0.0306,-0.032,-0.0325,-0.0329,-0.0332,-0.029,-0.0289,-0.0296,-0.0296,-0.0295,-0.0294,0,-0.1064,-0.1061,-0.1048,-0.1031,-0.1005,-0.098,-0.0918,-0.0881,-0.0837,-0.0787,-0.0716,-0.0614,-0.0532,-0.0498,-0.0434,-0.0408,-0.0375,-0.0348,-0.0314,-0.0347,-0.03,-0.0297,-0.0305,-0.0303,-0.0301,-0.03,0,0,-0.1103,-0.107,-0.1069,-0.1082,-0.1035,-0.1014,-0.0984,-0.0933,-0.092,-0.0837,-0.0822,-0.0698,-0.0652,-0.0593,-0.0517,-0.0482,-0.0473,-0.0427,-0.0422,-0.041,-0.0405,-0.0272,-0.0254,-0.0457,-0.0457,-0.0456,-0.0368,0,-0.1132,-0.1138,-0.1113,-0.1133,-0.1131,-0.1081,-0.1063,-0.1014,-0.0957,-0.0922,-0.0825,-0.0771,-0.0685,-0.0655,-0.0611,-0.0519,-0.0467,-0.0498,-0.0353,-0.0348,-0.0245,-0.0247,-0.014,-0.0042,-0.0364,-0.0363,-0.0363,0,-0.1165,-0.1163,-0.1187,-0.1193,-0.1188,-0.1196,-0.1174,-0.1144,-0.107,-0.1026,-0.0965,-0.0887,-0.082,-0.0747,-0.0613,-0.0642,-0.0522,-0.0443,-0.0438,-0.0262,-0.0208,-0.0054,-0.0022,0.0197,-0.0356,-0.0357,-0.0357,0,-0.1232,-0.1227,-0.1257,-0.1258,-0.1241,-0.1251,-0.1239,-0.118,-0.1162,-0.1098,-0.1092,-0.0992,-0.0967,-0.0824,-0.0647,-0.0636,-0.0503,-0.0469,-0.0227,-0.0217,-0.0065,-0.0041,0.0183,-0.0348,-0.0348,-0.0348,-0.0349,0,-0.1291,-0.1317,-0.1293,-0.1315,-0.1357,-0.1318,-0.1345,-0.131,-0.1269,-0.1277,-0.1158,-0.1163,-0.0988,-0.0882,-0.0698,-0.0457,-0.0539,-0.0225,-0.0181,-0.0105,-0.0086,0.0162,0.0224,-0.0345,-0.0346,-0.0347,-0.0347,0,-0.1376,-0.1356,-0.1397,-0.1391,-0.1398,-0.1431,-0.1434,-0.144,-0.1387,-0.1404,-0.1393,-0.1312,-0.1179,-0.0958,-0.0747,-0.0526,-0.0144,-0.0181,-0.0094,-0.0038,0.0421,0.047,0.0718,0.0855,0.0099,0.0103,0.0107,0,-0.1426,-0.145,-0.1471,-0.1508,-0.1518,-0.1545,-0.1562,-0.1513,-0.1525,-0.1502,-0.1533,-0.1415,-0.1371,-0.0995,-0.0559,-0.0181,-0.0017,0.0184,0.0254,0.0481,0.0566,0.0584,0.0681,0.0392,0.0397,0.0401,0.0405,0,-0.1521,-0.1524,-0.1557,-0.1626,-0.1669,-0.1699,-0.1726,-0.1756,-0.1708,-0.1733,-0.1779,-0.1752,-0.134,-0.0903,-0.0329,-0.0063,0.037,0.029,0.0494,0.0804,0.0866,0.1007,0.0294,0.0444,0.044,0.0437,0.0435,0.0433,-0.1597,-0.1647,-0.1687,-0.176,-0.1805,-0.1857,-0.1905,-0.1944,-0.2,-0.2037,-0.1978,-0.1822,-0.1096,-0.0297,-0.0008,0.0797,0.0682,0.1037,0.1071,0.1064,0.1233,0.0624,0.0847,0.0845,0.0844,0.0843,0.0842,0,-0.1679,-0.1732,-0.1814,-0.1904,-0.1979,-0.1956,-0.2014,-0.2065,-0.218,-0.2104,-0.2127,-0.1259,-0.0587,0.0171,0.1228,0.1568,0.1622,0.1717,0.176,0.1819,0.1274,0.1328,0.1703,0.1703,0.1703,0.1702,0.1702,0.1702,-0.1726,-0.1827,-0.187,-0.2035,-0.2091,-0.217,-0.2203,-0.2281,-0.2214,-0.1973,-0.1489,-0.1088,0.0022,0.1281,0.212,0.221,0.2418,0.2393,0.2477,0.21,0.2038,0.1979,0.2051,0.257,0.2571,0.304,0.3045,0.3048]}],[{"header":{"parameterUnit":"m.s-1","parameterCategory":2,"la1":30.2991,"la2":30.254,"lo1":-89.0895,"lo2":-89.0444,"dy":0.0017,"dx":0.0017,"nx":28,"ny":28,"refTime":"2024-04-12T03:00:00:Z","depth":"2","parameterNumber":2,"parameterNumberName":"U-component_of_CURRENTS"},"data":[0,0,0,0,0,0,0,0,0,0,0,0,0,0,0,0,0,0,0,0,0,0,0,0,0,0,0,0,0,0,0,0,0,0,0,0,0,0,0,0,0,0,0,0,0,0,0,0,0,0,0,0,0,0,0,0,0,0,-0.3258,-0.3254,0,-0.3082,-0.3082,-0.3081,-0.3099,-0.31,-0.3101,-0.3102,-0.3065,-0.3063,-0.3061,0,0,0,0,0,0,0,0,0,0,0,0,0,-0.3368,-0.3369,-0.3258,-0.3254,-0.325,-0.3082,-0.3082,-0.3081,-0.3099,-0.31,-0.3101,-0.3102,-0.3066,-0.3064,-0.3061,0,0,0,0,0,0,0,0,0,0,0,0,0,-0.3288,-0.3369,-0.3259,-0.3225,-0.3218,-0.3083,-0.3082,-0.3081,-0.3099,-0.31,-0.3102,-0.3103,-0.3067,-0.3064,-0.3061,-0.3014,0,0,-0.3052,-0.3051,0,0,0,0,0,0,0,0,-0.3293,-0.3287,-0.3233,-0.3226,-0.3219,-0.3097,-0.3105,-0.3059,-0.3098,-0.3165,-0.3102,-0.3104,-0.3075,-0.3071,-0.3061,-0.3013,-0.3011,-0.3052,-0.305,-0.3049,-0.3048,0,0,0,0,0,0,0,-0.3299,-0.3292,-0.3208,-0.3229,-0.322,-0.3133,-0.3129,-0.3097,-0.3131,-0.3159,-0.3155,-0.3104,-0.3075,-0.3064,-0.306,-0.301,-0.3052,-0.305,-0.3048,-0.3047,-0.3083,-0.3086,0,0,0,0,0,0,-0.3293,-0.3299,-0.3213,-0.3201,-0.3238,-0.313,-0.3125,-0.3151,-0.3129,-0.312,-0.3103,-0.3105,-0.3068,-0.3063,-0.3059,-0.3129,-0.3049,-0.3047,-0.3045,-0.3081,-0.3084,-0.3087,0,0,0,0,0,0,-0.3297,-0.329,-0.322,-0.3225,-0.3208,-0.3127,-0.3155,-0.3146,-0.3133,-0.3081,-0.308,-0.3096,-0.3069,-0.3063,-0.3102,-0.3123,-0.3045,-0.3043,-0.3078,-0.3082,-0.3085,-0.3187,0,0,0,0,0,0,-0.3303,-0.3295,-0.328,-0.3228,-0.3207,-0.3163,-0.3151,-0.3141,-0.3089,-0.3092,-0.3074,-0.3072,-0.3069,-0.3107,-0.3099,-0.3117,-0.304,-0.3074,-0.3079,-0.3084,-0.318,-0.3194,-0.3206,0,0,0,0,0,-0.3309,-0.3308,-0.3283,-0.3267,-0.3204,-0.3161,-0.3147,-0.3101,-0.3088,-0.3096,-0.3123,-0.3073,-0.3132,-0.3107,-0.3097,-0.3115,-0.3072,-0.3078,-0.3084,-0.3175,-0.3191,-0.3205,0,0,0,0,0,0,-0.3363,-0.3305,-0.3278,-0.3264,-0.3214,-0.3158,-0.3158,-0.3095,-0.3112,-0.3146,-0.3105,-0.3108,-0.3143,-0.3122,-0.3094,-0.3146,-0.3092,-0.3096,-0.3164,-0.318,-0.3192,-0.3251,-0.3038,0,0,0,0,0,-0.3357,-0.3325,-0.328,-0.325,-0.3278,-0.3212,-0.3173,-0.3145,-0.3143,-0.315,-0.3135,-0.3146,-0.3155,-0.3165,-0.3169,-0.3189,-0.3119,-0.3198,-0.321,-0.3221,-0.3267,-0.3174,-0.3181,-0.3107,-0.3107,-0.3106,0,0,-0.3354,-0.331,-0.3289,-0.325,-0.3255,-0.3252,-0.3207,-0.3196,-0.3181,-0.3144,-0.3182,-0.3179,-0.317,-0.3219,-0.3231,-0.3207,-0.32,-0.3229,-0.3238,-0.3279,-0.318,-0.3187,-0.3193,-0.3111,-0.311,-0.3109,0,0,-0.3354,-0.3354,-0.3354,-0.3335,-0.3302,-0.3271,-0.3266,-0.3247,-0.3271,-0.3275,-0.3264,-0.3289,-0.3285,-0.33,-0.3299,-0.3375,-0.3263,-0.3369,-0.3484,-0.3392,-0.3397,-0.34,-0.3285,-0.3277,-0.3383,-0.3383,-0.3383,0,-0.3343,-0.333,-0.3338,-0.3352,-0.3325,-0.3291,-0.3305,-0.3315,-0.3279,-0.3325,-0.3318,-0.3339,-0.3325,-0.3367,-0.3438,-0.3399,-0.3332,-0.3419,-0.3405,-0.3407,-0.3408,-0.329,-0.328,-0.3388,-0.3388,-0.3387,-0.3387,0,-0.3356,-0.3336,-0.337,-0.3363,-0.3364,-0.3359,-0.339,-0.3411,-0.3416,-0.3415,-0.3482,-0.3479,-0.3496,-0.3488,-0.3507,-0.3527,-0.3467,-0.3416,-0.3357,-0.3421,-0.3293,-0.3281,-0.3397,-0.3395,-0.3393,-0.3391,0,0,-0.3298,-0.3359,-0.3351,-0.3351,-0.3363,-0.336,-0.3432,-0.3471,-0.3473,-0.3536,-0.3518,-0.3643,-0.3659,-0.3665,-0.3646,-0.3615,-0.3563,-0.3568,-0.356,-0.344,-0.3351,-0.322,-0.3192,-0.3508,-0.3507,-0.3507,-0.3242,0,-0.3274,-0.329,-0.3331,-0.3317,-0.3338,-0.3386,-0.3411,-0.3461,-0.35,-0.3483,-0.3575,-0.357,-0.3716,-0.3688,-0.3712,-0.3546,-0.3546,-0.364,-0.3323,-0.3314,-0.3176,-0.3179,-0.299,-0.2733,-0.3229,-0.3227,-0.3226,0,-0.3227,-0.3222,-0.3259,-0.327,-0.3304,-0.3312,-0.3354,-0.338,-0.3439,-0.3477,-0.3581,-0.3585,-0.3623,-0.3655,-0.3581,-0.3635,-0.3575,-0.347,-0.3454,-0.3302,-0.3161,-0.2759,-0.2691,-0.3204,-0.3205,-0.3207,-0.3209,0,-0.3114,-0.3145,-0.3162,-0.3167,-0.3212,-0.328,-0.332,-0.3403,-0.341,-0.3474,-0.3402,-0.3517,-0.3435,-0.3445,-0.3412,-0.346,-0.3221,-0.3201,-0.3048,-0.3034,-0.28,-0.2767,-0.3175,-0.3175,-0.3176,-0.3176,-0.3177,0,-0.3033,-0.3033,-0.3119,-0.3117,-0.3143,-0.3221,-0.3258,-0.3333,-0.3305,-0.3257,-0.3407,-0.3317,-0.3384,-0.329,-0.3313,-0.3145,-0.3164,-0.3076,-0.2966,-0.2827,-0.2802,-0.3171,-0.3174,-0.3166,-0.3169,-0.3171,-0.3172,0,-0.2984,-0.301,-0.3024,-0.3082,-0.3108,-0.3167,-0.3234,-0.3181,-0.3214,-0.3096,-0.3096,-0.3095,-0.3006,-0.3035,-0.2918,-0.2925,-0.2805,-0.2769,-0.2611,-0.2491,-0.2695,-0.2707,-0.2493,-0.2486,-0.2481,-0.2476,-0.2472,0,-0.2995,-0.2969,-0.3022,-0.3015,-0.3083,-0.315,-0.3116,-0.3172,-0.306,-0.2968,-0.2805,-0.2744,-0.2698,-0.25,-0.2466,-0.2393,-0.2607,-0.219,-0.2281,-0.2716,-0.2629,-0.265,-0.2669,-0.198,-0.1973,-0.1966,-0.1961,0,-0.2957,-0.297,-0.2979,-0.2967,-0.2964,-0.2938,-0.2891,-0.2771,-0.2726,-0.2637,-0.2472,-0.245,-0.2284,-0.2135,-0.2058,-0.2023,-0.2186,-0.2055,-0.2477,-0.2213,-0.2219,-0.214,-0.2177,-0.1905,-0.1911,-0.1915,-0.1918,-0.192,-0.2897,-0.2913,-0.2862,-0.2874,-0.2819,-0.2648,-0.2566,-0.2446,-0.2298,-0.2095,-0.2166,-0.2073,-0.199,-0.1764,-0.1671,-0.1601,-0.1762,-0.1733,-0.1757,-0.1787,-0.1806,-0.1805,-0.1415,-0.1417,-0.1419,-0.1421,-0.1423,0,-0.27,-0.2735,-0.2732,-0.2644,-0.2478,-0.2547,-0.229,-0.2135,-0.1937,-0.1877,-0.1839,-0.1608,-0.1469,-0.143,-0.1217,-0.1161,-0.1208,-0.1138,-0.1223,-0.1275,-0.1323,-0.1327,-0.0803,-0.0801,-0.08,-0.0799,0,0,-0.2562,-0.2487,-0.2512,-0.2265,-0.222,-0.1927,-0.1765,-0.1651,-0.1531,-0.1437,-0.1403,-0.146,-0.1397,-0.1104,-0.1011,-0.0896,-0.1098,-0.0849,-0.134,-0.1494,-0.1542,-0.1643,-0.1703,0,0,0,0,0]},{"header":{"parameterUnit":"m.s-1","parameterCategory":2,"la1":30.2991,"la2":30.254,"lo1":-89.0895,"lo2":-89.0444,"dy":0.0017,"dx":0.0017,"nx":28,"ny":28,"refTime":"2024-04-12T03:00:00:Z","depth":"2","parameterNumber":3,"parameterNumberName":"V-component_of_CURRENTS"},"data":[0,0,0,0,0,0,0,0,0,0,0,0,0,0,0,0,0,0,0,0,0,0,0,0,0,0,0,0,0,0,0,0,0,0,0,0,0,0,0,0,0,0,0,0,0,0,0,0,0,0,0,0,0,0,0,0,0,0,0.0095,0.0095,0,0.0058,0.0057,0.0057,0.0057,0.0058,0.0058,0.0059,0.0236,0.0241,0.0245,0,0,0,0,0,0,0,0,0,0,0,0,0,0.0142,0.0141,0.0095,0.0095,0.0094,0.0058,0.0057,0.0057,0.0057,0.0058,0.0058,0.0059,0.0235,0.024,0.0245,0,0,0,0,0,0,0,0,0,0,0,0,0,0.0115,0.0141,0.0096,0.009,0.0089,0.0058,0.0057,0.0057,0.0057,0.0058,0.0058,0.0059,0.0233,0.024,0.0246,0.0272,0,0,0.0266,0.0269,0,0,0,0,0,0,0,0,0.0117,0.0113,0.0091,0.009,0.0089,0.0062,0.0138,0.0139,0.0057,0.007,0.0059,0.0059,0.0198,0.0207,0.0196,0.028,0.0288,0.0266,0.027,0.0273,0.0275,0,0,0,0,0,0,0,0.0118,0.0115,0.0081,0.0091,0.0089,0.008,0.0077,0.0138,0.0135,0.0069,0.0068,0.0063,0.0199,0.0189,0.0201,0.0291,0.0266,0.0272,0.0276,0.0278,0.0447,0.0448,0,0,0,0,0,0,0.0123,0.0117,0.0082,0.008,0.0104,0.0079,0.0076,0.0071,0.0129,0.0137,0.0063,0.0063,0.0178,0.0193,0.0207,0.0263,0.0273,0.0279,0.0283,0.0446,0.0447,0.0448,0,0,0,0,0,0,0.0124,0.012,0.0084,0.0097,0.0092,0.0077,0.0072,0.007,0.005,0.0122,0.0134,0.0044,0.0179,0.0198,0.0256,0.027,0.0282,0.0288,0.0446,0.0447,0.0447,0.0363,0,0,0,0,0,0,0.0125,0.0121,0.0095,0.0097,0.0091,0.004,0.0071,0.0068,0.0046,0.0047,0.0111,0.0128,0.0181,0.0246,0.0263,0.0279,0.0293,0.0445,0.0446,0.0447,0.0365,0.036,0.0357,0,0,0,0,0,0.0127,0.0093,0.0094,0.0088,0.0064,0.0038,0.0032,0.0026,0.0045,0.0016,0.008,0.0126,0.0266,0.0251,0.0271,0.0289,0.0444,0.0446,0.0447,0.0366,0.0361,0.0357,0,0,0,0,0,0,0.0103,0.0089,0.0091,0.0055,0.0036,0.0037,0.0007,0.0015,0.0035,0.0047,0.0127,0.0148,0.0201,0.0258,0.024,0.0343,0.0366,0.0371,0.0298,0.0294,0.029,0.0278,0.0298,0,0,0,0,0,0.0085,0.0049,0.0047,0.0012,0.0006,0.0006,-0.001,-0.0011,0.0015,0.0021,0.0074,0.0149,0.0222,0.0265,0.0321,0.0378,0.043,0.0407,0.0403,0.0399,0.0404,0.05,0.0505,0.0452,0.0452,0.0452,0,0,0.0065,0.0051,0.0031,0.0001,-0.0007,-0.0044,-0.0003,-0.0033,-0.0048,0.0046,0.0051,0.0127,0.023,0.0286,0.0318,0.0338,0.0434,0.0401,0.0397,0.0404,0.0502,0.0507,0.0512,0.0453,0.0453,0.0453,0,0,-0.0003,0.0,-0.0059,-0.0075,-0.0101,-0.0096,-0.0107,-0.0106,-0.0089,-0.0075,0.0007,0.0095,0.0169,0.0265,0.0323,0.0339,0.0399,0.0353,0.034,0.0432,0.0437,0.0442,0.0474,0.0482,0.0365,0.0365,0.0365,0,-0.0035,-0.0096,-0.0081,-0.0136,-0.016,-0.0121,-0.0181,-0.0157,-0.0138,-0.0089,-0.0087,0.0095,0.0166,0.0303,0.0298,0.0332,0.0367,0.0343,0.0426,0.0432,0.0439,0.0471,0.0482,0.0361,0.0362,0.0362,0.0362,0,-0.0141,-0.0192,-0.022,-0.0276,-0.0299,-0.0339,-0.0304,-0.029,-0.0253,-0.0198,-0.0078,0.0036,0.0157,0.0197,0.0245,0.0353,0.0351,0.0395,0.043,0.0439,0.0472,0.0484,0.0356,0.0357,0.0358,0.0359,0,0,-0.0196,-0.0287,-0.0298,-0.0345,-0.0373,-0.0399,-0.0393,-0.0356,-0.0297,-0.0234,-0.015,-0.0006,0.0094,0.0168,0.0273,0.036,0.0415,0.0382,0.0389,0.0398,0.0569,0.0572,0.0586,0.0466,0.0469,0.0471,0.0556,0,-0.0287,-0.0432,-0.044,-0.0544,-0.0601,-0.055,-0.0539,-0.0481,-0.0386,-0.0285,-0.0104,0.0014,0.0078,0.0155,0.0249,0.0376,0.0451,0.0384,0.0572,0.0577,0.0569,0.0603,0.0568,0.0643,0.0569,0.0571,0.0573,0,-0.0381,-0.0465,-0.0614,-0.0659,-0.0672,-0.072,-0.0656,-0.0639,-0.0452,-0.0358,-0.0183,-0.0033,0.0133,0.0174,0.0398,0.0344,0.0439,0.0533,0.054,0.0588,0.0607,0.0634,0.067,0.0595,0.0593,0.0592,0.059,0,-0.0442,-0.0563,-0.0696,-0.0725,-0.0776,-0.0799,-0.0802,-0.0663,-0.0584,-0.0392,-0.0295,-0.0063,0.0041,0.0215,0.0404,0.0398,0.0623,0.065,0.0749,0.0747,0.0781,0.0779,0.0806,0.0806,0.0806,0.0805,0.0805,0,-0.0529,-0.0612,-0.0742,-0.081,-0.0904,-0.0892,-0.0888,-0.0823,-0.0657,-0.0542,-0.0343,-0.0202,0.0053,0.0234,0.0391,0.0598,0.0619,0.0752,0.0789,0.0745,0.0739,0.0759,0.0752,0.0808,0.0808,0.0807,0.0807,0,-0.0589,-0.0671,-0.0825,-0.0932,-0.0956,-0.1035,-0.1,-0.0916,-0.0791,-0.0643,-0.0581,-0.0313,-0.0094,0.0167,0.0441,0.0571,0.0783,0.0852,0.075,0.0775,0.0836,0.0824,0.0967,0.0968,0.0969,0.097,0.0971,0,-0.0624,-0.0731,-0.0945,-0.1017,-0.1086,-0.1153,-0.1126,-0.1014,-0.0906,-0.0696,-0.0613,-0.0371,-0.0164,0.0212,0.0497,0.0787,0.0809,0.0904,0.0914,0.084,0.0862,0.0849,0.0836,0.0903,0.0903,0.0904,0.0904,0,-0.0698,-0.0819,-0.097,-0.1132,-0.1189,-0.1198,-0.1172,-0.1111,-0.0933,-0.08,-0.0607,-0.0443,-0.0093,0.0229,0.0587,0.075,0.0856,0.0914,0.0911,0.0863,0.0788,0.0806,0.0794,0.0905,0.0904,0.0904,0.0904,0.0904,-0.0753,-0.0911,-0.1109,-0.1263,-0.1268,-0.1212,-0.1206,-0.1102,-0.0968,-0.0728,-0.0602,-0.0323,-0.0055,0.0483,0.0687,0.0881,0.09,0.0968,0.0966,0.0964,0.0936,0.0867,0.099,0.099,0.0991,0.0991,0.0991,0,-0.0798,-0.1011,-0.1169,-0.1307,-0.1246,-0.1261,-0.1173,-0.1105,-0.0974,-0.0708,-0.0501,-0.0146,0.0216,0.0477,0.0786,0.096,0.094,0.0972,0.0923,0.0922,0.0921,0.0889,0.0932,0.0933,0.0933,0.0933,0,0,-0.084,-0.1042,-0.1177,-0.1224,-0.1256,-0.1149,-0.1105,-0.1049,-0.0881,-0.0638,-0.0384,-0.0011,0.0274,0.0499,0.069,0.0815,0.0815,0.0813,0.0846,0.0762,0.0759,0.0909,0.0858,0,0,0,0,0]}],[{"header":{"parameterUnit":"m.s-1","parameterCategory":2,"la1":30.2991,"la2":30.254,"lo1":-89.0895,"lo2":-89.0444,"dy":0.0017,"dx":0.0017,"nx":28,"ny":28,"refTime":"2024-04-12T03:00:00:Z","depth":"4","parameterNumber":2,"parameterNumberName":"U-component_of_CURRENTS"},"data":[0,0,0,0,0,0,0,0,0,0,0,0,0,0,0,0,0,0,0,0,0,0,0,0,0,0,0,0,0,0,0,0,0,0,0,0,0,0,0,0,0,0,0,0,0,0,0,0,0,0,0,0,0,0,0,0,0,0,-0.1337,-0.1339,0,-0.1516,-0.1518,-0.152,-0.1612,-0.1612,-0.1612,-0.1612,-0.1731,-0.1733,-0.1736,0,0,0,0,0,0,0,0,0,0,0,0,0,-0.1171,-0.1173,-0.1337,-0.1339,-0.1342,-0.1516,-0.1518,-0.1521,-0.1612,-0.1612,-0.1612,-0.1612,-0.173,-0.1733,-0.1737,0,0,0,0,0,0,0,0,0,0,0,0,0,-0.1285,-0.1174,-0.1337,-0.1409,-0.1417,-0.1515,-0.1518,-0.1521,-0.1612,-0.1612,-0.1612,-0.1613,-0.1728,-0.1733,-0.1737,-0.176,0,0,-0.1751,-0.1753,0,0,0,0,0,0,0,0,-0.1278,-0.1291,-0.1396,-0.1404,-0.1413,-0.1543,-0.1504,-0.1599,-0.1612,-0.1537,-0.1612,-0.1613,-0.1662,-0.1672,-0.1705,-0.1766,-0.1771,-0.1751,-0.1754,-0.1756,-0.1757,0,0,0,0,0,0,0,-0.127,-0.1284,-0.1407,-0.1398,-0.1409,-0.1466,-0.1481,-0.1523,-0.1594,-0.1544,-0.1551,-0.1572,-0.1667,-0.1701,-0.1708,-0.1773,-0.1751,-0.1755,-0.1758,-0.176,-0.1941,-0.1943,0,0,0,0,0,0,-0.1245,-0.1276,-0.1402,-0.1413,-0.1346,-0.1468,-0.1485,-0.15,-0.1596,-0.1611,-0.1572,-0.1576,-0.1693,-0.1703,-0.1713,-0.1824,-0.1756,-0.176,-0.1763,-0.1939,-0.1942,-0.1944,0,0,0,0,0,0,-0.124,-0.1254,-0.1394,-0.135,-0.1372,-0.147,-0.1487,-0.1504,-0.1581,-0.1618,-0.1632,-0.1635,-0.1694,-0.1707,-0.1781,-0.1825,-0.1762,-0.1766,-0.1937,-0.194,-0.1943,-0.1994,0,0,0,0,0,0,-0.1234,-0.1251,-0.1279,-0.1347,-0.1373,-0.1472,-0.1487,-0.1507,-0.1591,-0.1599,-0.1676,-0.1685,-0.1695,-0.1774,-0.1786,-0.1831,-0.177,-0.1934,-0.1938,-0.1942,-0.199,-0.1999,-0.2007,0,0,0,0,0,-0.1228,-0.1248,-0.1278,-0.1296,-0.1399,-0.1474,-0.1493,-0.1563,-0.1594,-0.1633,-0.1685,-0.1685,-0.1807,-0.178,-0.1793,-0.184,-0.1932,-0.1937,-0.1941,-0.1986,-0.1997,-0.2006,0,0,0,0,0,0,-0.1199,-0.1261,-0.1296,-0.1338,-0.1414,-0.149,-0.1535,-0.159,-0.1667,-0.1675,-0.1715,-0.1728,-0.181,-0.182,-0.1789,-0.1904,-0.1869,-0.1877,-0.1899,-0.191,-0.1918,-0.1899,-0.1774,0,0,0,0,0,-0.1203,-0.1227,-0.1309,-0.1346,-0.1383,-0.1472,-0.1522,-0.1568,-0.1634,-0.1671,-0.1731,-0.1784,-0.1835,-0.1868,-0.191,-0.1976,-0.1957,-0.2014,-0.2023,-0.2029,-0.2024,-0.2033,-0.204,-0.196,-0.196,-0.196,0,0,-0.121,-0.124,-0.1264,-0.1342,-0.1403,-0.1473,-0.1503,-0.1576,-0.1641,-0.1668,-0.1777,-0.182,-0.186,-0.1932,-0.1969,-0.195,-0.2044,-0.2036,-0.2041,-0.2032,-0.2038,-0.2046,-0.2052,-0.1963,-0.1962,-0.1962,0,0,-0.121,-0.1257,-0.1281,-0.1331,-0.1415,-0.1487,-0.1519,-0.1622,-0.1676,-0.1773,-0.1809,-0.1873,-0.1969,-0.2,-0.2026,-0.2106,-0.2089,-0.2136,-0.2165,-0.2174,-0.218,-0.2185,-0.2168,-0.2171,-0.2139,-0.2139,-0.2139,0,-0.1218,-0.1258,-0.1307,-0.1334,-0.1393,-0.15,-0.1562,-0.1633,-0.1752,-0.1785,-0.181,-0.1951,-0.1993,-0.2066,-0.2104,-0.2123,-0.212,-0.2122,-0.2182,-0.2187,-0.2191,-0.2172,-0.2174,-0.2142,-0.2142,-0.2141,-0.2141,0,-0.1227,-0.1277,-0.1293,-0.1375,-0.1448,-0.1511,-0.1614,-0.1695,-0.1785,-0.1842,-0.1941,-0.2004,-0.2074,-0.2116,-0.2144,-0.221,-0.2195,-0.219,-0.2149,-0.2202,-0.2179,-0.218,-0.2146,-0.2145,-0.2144,-0.2144,0,0,-0.1203,-0.1289,-0.13,-0.1346,-0.1473,-0.1532,-0.1638,-0.1757,-0.1805,-0.1919,-0.1988,-0.2095,-0.2121,-0.2153,-0.22,-0.2231,-0.2271,-0.2239,-0.2238,-0.2206,-0.2281,-0.2115,-0.21,-0.2285,-0.2285,-0.2286,-0.2251,0,-0.1215,-0.1272,-0.1326,-0.1432,-0.1491,-0.1593,-0.1685,-0.1785,-0.1866,-0.1952,-0.2022,-0.2099,-0.2137,-0.2178,-0.222,-0.2274,-0.2279,-0.2279,-0.2247,-0.2245,-0.2079,-0.2098,-0.2289,-0.2252,-0.2252,-0.2252,-0.2253,0,-0.121,-0.1257,-0.1346,-0.146,-0.1497,-0.1581,-0.1722,-0.181,-0.1918,-0.1959,-0.2028,-0.2083,-0.2179,-0.2191,-0.2267,-0.2273,-0.2275,-0.2297,-0.2295,-0.2119,-0.2081,-0.2192,-0.2255,-0.2255,-0.2254,-0.2254,-0.2254,0,-0.1158,-0.1273,-0.1353,-0.1386,-0.1534,-0.1594,-0.1703,-0.1811,-0.1846,-0.1962,-0.1994,-0.2089,-0.2156,-0.2193,-0.2249,-0.2266,-0.2305,-0.2315,-0.2149,-0.2137,-0.2274,-0.2269,-0.2316,-0.2317,-0.2317,-0.2317,-0.2317,0,-0.112,-0.1173,-0.1337,-0.1355,-0.1443,-0.1579,-0.1642,-0.1731,-0.1834,-0.1877,-0.1999,-0.2034,-0.2165,-0.2207,-0.2239,-0.2191,-0.2278,-0.214,-0.2113,-0.2297,-0.2296,-0.2274,-0.2269,-0.2315,-0.2316,-0.2316,-0.2316,0,-0.099,-0.1112,-0.1179,-0.1347,-0.1401,-0.1457,-0.1573,-0.1603,-0.1742,-0.1808,-0.1851,-0.1994,-0.2051,-0.2122,-0.218,-0.2146,-0.2131,-0.2076,-0.225,-0.2237,-0.196,-0.1959,-0.1886,-0.188,-0.1875,-0.1871,-0.1867,0,-0.0926,-0.0954,-0.1109,-0.1128,-0.1191,-0.1289,-0.1345,-0.1518,-0.1559,-0.1764,-0.18,-0.1894,-0.197,-0.1922,-0.2004,-0.1987,-0.1972,-0.1947,-0.1971,-0.1932,-0.1915,-0.1923,-0.1929,-0.1858,-0.1857,-0.1856,-0.1854,0,-0.0775,-0.0836,-0.0861,-0.0908,-0.098,-0.1048,-0.1171,-0.1211,-0.145,-0.1563,-0.1684,-0.1731,-0.1779,-0.1818,-0.1795,-0.1798,-0.1969,-0.1892,-0.1904,-0.1926,-0.1898,-0.1888,-0.19,-0.1836,-0.1839,-0.184,-0.1841,0,-0.0643,-0.061,-0.0659,-0.0673,-0.0733,-0.0841,-0.0938,-0.1071,-0.1175,-0.148,-0.1495,-0.1645,-0.176,-0.1714,-0.171,-0.1677,-0.1664,-0.1643,-0.1668,-0.1689,-0.164,-0.1576,-0.1377,0,0,0,0,0,-0.0549,-0.0487,-0.0438,-0.0482,-0.0508,-0.0602,-0.0828,-0.0966,-0.1245,-0.1281,-0.1398,-0.1445,-0.1481,-0.1537,-0.1458,-0.1583,-0.1643,-0.1484,-0.1626,-0.1735,-0.1756,-0.1716,0,0,0,0,0,0,-0.049,-0.0433,-0.0383,-0.0305,-0.03,-0.04,-0.0586,-0.0797,-0.0861,-0.112,-0.1137,-0.1289,-0.1318,-0.1441,-0.1383,-0.1398,-0.1454,-0.1552,-0.1548,-0.1723,-0.1742,-0.1759,-0.1726,0,0,0,0,0]},{"header":{"parameterUnit":"m.s-1","parameterCategory":2,"la1":30.2991,"la2":30.254,"lo1":-89.0895,"lo2":-89.0444,"dy":0.0017,"dx":0.0017,"nx":28,"ny":28,"refTime":"2024-04-12T03:00:00:Z","depth":"4","parameterNumber":3,"parameterNumberName":"V-component_of_CURRENTS"},"data":[0,0,0,0,0,0,0,0,0,0,0,0,0,0,0,0,0,0,0,0,0,0,0,0,0,0,0,0,0,0,0,0,0,0,0,0,0,0,0,0,0,0,0,0,0,0,0,0,0,0,0,0,0,0,0,0,0,0,-0.0143,-0.0143,0,-0.0106,-0.0106,-0.0106,-0.0068,-0.0068,-0.0067,-0.0067,0.0027,0.0028,0.003,0,0,0,0,0,0,0,0,0,0,0,0,0,-0.0124,-0.0125,-0.0143,-0.0143,-0.0142,-0.0106,-0.0106,-0.0105,-0.0068,-0.0068,-0.0067,-0.0066,0.0026,0.0028,0.0031,0,0,0,0,0,0,0,0,0,0,0,0,0,-0.0115,-0.0125,-0.0144,-0.0119,-0.0116,-0.0106,-0.0106,-0.0105,-0.0069,-0.0068,-0.0067,-0.0066,0.0025,0.0028,0.0031,0.0032,0,0,0.004,0.0041,0,0,0,0,0,0,0,0,-0.0116,-0.0116,-0.0123,-0.0121,-0.0118,-0.009,-0.0065,-0.0056,-0.0069,-0.0088,-0.0067,-0.0066,-0.0007,-0.0002,0.0001,0.0036,0.004,0.004,0.0042,0.0043,0.0044,0,0,0,0,0,0,0,-0.0117,-0.0117,-0.013,-0.0123,-0.0119,-0.009,-0.0088,-0.0063,-0.0052,-0.0086,-0.0083,-0.0078,-0.0005,-0.0002,0.0004,0.0042,0.004,0.0043,0.0044,0.0046,0.0111,0.0111,0,0,0,0,0,0,-0.0124,-0.0118,-0.0131,-0.0128,-0.0114,-0.0091,-0.0089,-0.0101,-0.0054,-0.0046,-0.0079,-0.0076,-0.0007,0.0001,0.0008,0.002,0.0043,0.0046,0.0048,0.0111,0.0111,0.0111,0,0,0,0,0,0,-0.0124,-0.0126,-0.0132,-0.012,-0.0119,-0.0093,-0.0105,-0.01,-0.0094,-0.0049,-0.004,-0.0077,-0.0006,0.0003,0.0022,0.0024,0.0047,0.005,0.0111,0.0111,0.0111,0.0041,0,0,0,0,0,0,-0.0124,-0.0127,-0.0129,-0.0122,-0.012,-0.0134,-0.0106,-0.01,-0.0092,-0.0088,-0.0044,-0.0035,-0.0005,0.0017,0.0025,0.0029,0.0052,0.0111,0.0111,0.0111,0.0043,0.0038,0.0034,0,0,0,0,0,-0.0124,-0.0138,-0.013,-0.0131,-0.0128,-0.0135,-0.0132,-0.0109,-0.0093,-0.0099,-0.0069,-0.0036,0.0023,0.0019,0.0028,0.0033,0.0111,0.0111,0.0111,0.0045,0.0039,0.0034,0,0,0,0,0,0,-0.0129,-0.0135,-0.0127,-0.0141,-0.014,-0.0129,-0.0129,-0.0114,-0.0097,-0.0093,-0.0046,-0.0036,-0.0017,0.0016,0.001,0.0053,0.0077,0.0079,0.0024,0.0019,0.0014,0.0006,0.0055,0,0,0,0,0,-0.0133,-0.0148,-0.0145,-0.0157,-0.016,-0.0145,-0.0141,-0.0134,-0.0119,-0.0111,-0.0078,-0.0041,-0.0011,0.0009,0.0035,0.0054,0.0116,0.0068,0.0063,0.0059,0.0059,0.0171,0.0177,0.0111,0.0111,0.0111,0,0,-0.014,-0.0143,-0.0151,-0.0159,-0.0157,-0.0177,-0.0142,-0.0151,-0.0162,-0.0103,-0.0102,-0.0061,-0.0012,0.0006,0.002,0.0036,0.0105,0.0059,0.0055,0.0058,0.0172,0.0179,0.0185,0.0111,0.0111,0.0111,0,0,-0.0168,-0.0167,-0.019,-0.02,-0.0204,-0.0198,-0.0204,-0.0198,-0.0189,-0.0189,-0.0142,-0.0096,-0.0066,-0.0017,0.0009,-0.0,0.0073,0.0008,-0.0015,0.0092,0.0099,0.0106,0.0169,0.0182,0.0012,0.0012,0.0012,0,-0.0169,-0.0207,-0.0196,-0.0226,-0.0239,-0.0214,-0.0247,-0.024,-0.0225,-0.0213,-0.02,-0.0118,-0.0073,-0.0025,-0.0029,-0.0009,0.0049,-0.0003,0.0087,0.0096,0.0104,0.0168,0.0183,0.0009,0.0009,0.0009,0.001,0,-0.0222,-0.0251,-0.027,-0.03,-0.031,-0.0338,-0.0333,-0.0333,-0.0315,-0.0291,-0.0248,-0.018,-0.0123,-0.0098,-0.0071,0.0007,0.0025,0.0063,0.01,0.0106,0.0173,0.019,0.0004,0.0005,0.0006,0.0007,0,0,-0.022,-0.0293,-0.0298,-0.0335,-0.0357,-0.0376,-0.0394,-0.0394,-0.0391,-0.0352,-0.0322,-0.0256,-0.0197,-0.0162,-0.0099,-0.0004,0.0097,0.0046,0.0054,0.0105,0.0309,0.0253,0.0267,0.0156,0.0159,0.0162,0.0323,0,-0.0261,-0.0344,-0.0361,-0.0433,-0.0476,-0.0472,-0.0491,-0.0483,-0.0452,-0.0414,-0.032,-0.027,-0.0228,-0.0187,-0.009,0.0065,0.0143,0.0048,0.0298,0.0305,0.0253,0.0286,0.0172,0.0336,0.034,0.0343,0.0345,0,-0.0296,-0.0353,-0.0441,-0.0514,-0.053,-0.0565,-0.0581,-0.0591,-0.0529,-0.0496,-0.0417,-0.0338,-0.0204,-0.0165,0.0087,0.0025,0.0147,0.0262,0.0272,0.026,0.0282,0.0337,0.0377,0.0375,0.0372,0.037,0.0368,0,-0.0301,-0.0399,-0.0476,-0.0506,-0.0581,-0.0613,-0.0637,-0.0613,-0.0604,-0.0529,-0.0481,-0.0342,-0.0232,-0.0059,0.0152,0.0136,0.0436,0.045,0.0503,0.05,0.0532,0.0524,0.0614,0.0614,0.0614,0.0613,0.0613,0,-0.0328,-0.0382,-0.0496,-0.0539,-0.062,-0.0653,-0.0691,-0.069,-0.0648,-0.0604,-0.0515,-0.042,-0.019,-0.0003,0.0161,0.0385,0.0447,0.0504,0.0548,0.0493,0.0479,0.0543,0.0533,0.0619,0.0618,0.0617,0.0616,0,-0.0302,-0.0381,-0.0477,-0.0591,-0.0628,-0.068,-0.0734,-0.0738,-0.0704,-0.0631,-0.06,-0.043,-0.019,0.0016,0.0327,0.0406,0.0617,0.067,0.0573,0.0609,0.0598,0.0582,0.0747,0.0746,0.0746,0.0746,0.0746,0,-0.0297,-0.0349,-0.0503,-0.0562,-0.0618,-0.0698,-0.0736,-0.0758,-0.074,-0.062,-0.0563,-0.0352,-0.0219,0.0183,0.0365,0.0638,0.0661,0.073,0.0671,0.059,0.0618,0.0602,0.0587,0.0745,0.0745,0.0745,0.0745,0,-0.0274,-0.0332,-0.0406,-0.053,-0.0611,-0.0694,-0.0744,-0.0742,-0.0719,-0.0684,-0.0481,-0.0304,-0.0048,0.0206,0.0402,0.0596,0.0667,0.0727,0.0728,0.0674,0.059,0.0615,0.06,0.0744,0.0744,0.0744,0.0744,0,-0.0234,-0.0277,-0.0374,-0.0477,-0.0577,-0.0651,-0.0706,-0.0671,-0.0657,-0.0539,-0.046,-0.021,-0.006,0.0186,0.0383,0.0545,0.057,0.0588,0.0597,0.06,0.0485,0.0353,0.0484,0,0,0,0,0,-0.0179,-0.0215,-0.031,-0.0424,-0.0518,-0.0578,-0.0674,-0.0713,-0.0701,-0.0548,-0.0506,-0.0267,0.0025,0.0157,0.032,0.0335,0.056,0.0518,0.0577,0.0738,0.0739,0.0621,0,0,0,0,0,0,-0.0143,-0.0202,-0.0273,-0.0345,-0.0403,-0.0498,-0.0572,-0.0589,-0.0513,-0.0468,-0.0295,-0.0226,0.0069,-0.0007,0.0351,0.039,0.0437,0.0657,0.0658,0.0737,0.0738,0.0739,0.0619,0,0,0,0,0]}]]